Temp
1 1 1 1 1 1 1 1 1 1 1 1 1 1 1 1 1 1 2 2 2 3 3 3 4 4 4 4 4 4 4 4 4 5 5 5 5 6 6 7 7 8 8 8 9 8 8 8 8 9 11 12 13 13 13 13 13 13 12 12 12 12 12 12 12 12 12 12 12
0 0 0 0 0 0 0 0 0 0 0 0 0 0 0 0 1 1 1 1 2 2 2 2 3 3 3 3 3 3 3 4 4 4 5 5 5 6 6 6 7 7 8 8 8 8 7 7 8 8 9 11 12 13 12 12 12 12 12 12 12 12 12 12 12 12 12 12 12
-0 -0 -0 -0 -0 -0 -0 -0 -0 -0 -0 -0 -0 -0 -0 0 0 1 1 1 1 1 1 2 2 2 2 2 3 3 3 3 4 4 4 5 5 5 6 6 7 7 7 7 7 7 7 7 7 7 8 9 11 12 12 12 12 12 12 12 12 12 12 11 11 11 11 11 12
-1 -1 -1 -1 -1 -1 -1 -0 -0 -1 -1 -1 -1 -0 -0 -0 0 0 0 0 0 1 1 1 1 1 2 2 3 3 3 3 3 4 4 4 5 5 5 6 7 7 7 7 8 7 7 7 7 7 7 8 9 10 11 11 12 12 12 12 12 12 11 11 11 11 11 11 11
-1 -1 -1 -1 -1 -1 -1 -1 -1 -1 -1 -1 -1 -0 -0 -0 -0 -0 0 0 0 0 0 0 1 1 2 2 2 2 2 2 3 3 4 4 4 5 5 6 6 7 7 8 8 8 7 7 7 7 7 8 9 9 10 11 11 11 11 11 11 11 11 11 11 11 11 11 11
-1 -1 -1 -1 -1 -1 -1 -1 -1 -1 -1 -1 -1 -1 -0 -0 -0 -0 -0 -0 -0 -0 -0 -0 0 1 1 1 1 2 2 2 3 3 4 4 4 5 5 5 6 7 7 8 8 8 7 7 7 7 7 7 8 9 9 10 10 11 11 11 11 11 11 11 11 11 11 10 10
-2 -2 -1 -1 -1 -1 -1 -1 -1 -1 -1 -1 -1 -1 -1 -1 -1 -1 -1 -1 -1 -1 -0 -0 0 0 0 1 1 1 2 2 3 3 3 4 4 5 5 5 6 6 7 7 8 8 7 7 7 7 7 8 8 8 9 9 10 10 10 10 10 10 11 11 11 11 10 10 10
-2 -2 -2 -1 -1 -1 -1 -1 -2 -1 -1 -1 -1 -1 -1 -1 -1 -1 -1 -1 -1 -1 -0 -0 -0 -0 -0 0 1 1 2 2 3 3 3 4 4 5 5 5 6 6 7 7 8 8 8 7 7 7 7 8 8 8 8 9 9 9 10 10 10 10 10 10 10 10 10 10 10
-2 -2 -2 -1 -1 -1 -2 -2 -2 -2 -1 -1 -1 -1 -1 -1 -1 -1 -1 -1 -1 -1 -1 -1 -0 -0 -0 0 0 1 1 2 2 3 3 4 4 5 5 5 5 6 6 7 7 8 8 7 7 7 7 7 7 8 8 9 9 9 9 9 9 9 10 10 10 10 10 10 9
-2 -2 -2 -1 -1 -2 -2 -2 -2 -2 -1 -1 -1 -1 -1 -1 -1 -1 -1 -1 -1 -1 -1 -1 -1 -0 -0 0 0 1 1 2 2 3 3 3 4 5 5 5 5 6 6 6 7 7 7 7 7 7 7 7 7 7 7 8 8 9 9 9 9 9 9 9 9 9 9 9 9
-2 -2 -2 -2 -2 -2 -2 -2 -2 -2 -2 -2 -2 -2 -2 -1 -1 -1 -1 -1 -1 -1 -1 -1 -0 -0 -0 0 0 1 1 2 2 2 3 3 4 4 5 5 5 5 5 6 6 7 7 7 7 7 7 7 7 6 7 7 8 8 9 9 9 9 8 8 8 8 8 8 8
-2 -2 -2 -2 -2 -2 -2 -2 -2 -2 -2 -2 -2 -2 -2 -1 -1 -1 -1 -1 -1 -1 -1 -0 -0 -0 -0 0 0 1 1 2 2 2 3 3 4 4 5 5 5 5 5 5 6 6 6 6 6 6 6 6 6 6 6 6 7 7 8 8 8 8 8 8 8 7 7 7 7
-2 -2 -2 -2 -2 -2 -2 -2 -2 -2 -2 -2 -2 -2 -2 -1 -1 -1 -1 -1 -1 -1 -1 -0 -0 -0 0 0 1 1 1 2 2 3 3 3 4 4 5 5 5 5 5 5 5 6 6 6 6 6 6 6 6 6 6 6 6 7 7 8 8 7 7 7 7 7 7 7 6
-2 -2 -2 -2 -2 -3 -3 -2 -2 -2 -2 -2 -2 -2 -2 -1 -1 -1 -1 -1 -1 -1 -0 -0 0 0 0 1 1 1 2 2 2 3 3 3 4 4 5 5 5 5 4 4 5 5 6 6 6 6 6 6 6 6 6 6 6 7 7 7 7 7 7 7 6 6 6 6 6
-2 -2 -3 -3 -3 -3 -3 -3 -3 -3 -3 -3 -2 -2 -2 -2 -1 -1 -1 -1 -1 -0 -0 -0 -0 0 0 1 1 1 2 2 3 3 3 4 4 4 4 5 5 5 5 4 4 5 5 6 6 6 6 7 6 6 6 6 6 7 7 7 7 6 6 6 6 6 6 5 5
-3 -3 -3 -3 -3 -3 -3 -3 -3 -3 -3 -3 -2 -2 -2 -2 -1 -1 -1 -1 -1 -1 -0 -0 -0 -0 -0 0 1 1 1 2 3 3 3 4 4 4 4 4 5 5 5 5 4 5 5 5 5 6 6 6 6 6 6 6 6 6 6 6 6 6 6 6 5 5 5 5 5
-3 -3 -3 -3 -3 -3 -3 -3 -3 -3 -3 -3 -3 -2 -2 -2 -2 -1 -1 -1 -1 -1 -1 -1 -1 -1 -1 -0 -0 0 1 1 2 3 3 3 3 3 3 4 4 4 5 5 5 5 5 5 5 5 5 6 6 6 5 5 5 5 5 6 5 5 5 5 5 5 5 5 5
-3 -3 -3 -3 -3 -3 -3 -3 -3 -3 -3 -3 -3 -3 -2 -2 -2 -1 -1 -1 -1 -1 -1 -1 -1 -1 -1 -1 -1 -0 0 1 1 2 2 1 2 2 2 2 3 3 4 4 5 4 4 4 5 5 5 5 5 5 5 5 5 5 5 5 5 5 5 5 5 4 4 4 4
-3 -3 -3 -3 -3 -3 -3 -3 -3 -3 -3 -3 -3 -3 -3 -2 -2 -2 -2 -2 -1 -1 -1 -2 -2 -2 -2 -1 -1 -1 -0 -0 0 0 0 1 1 1 1 1 1 2 2 3 3 3 3 3 4 4 4 4 4 4 4 4 4 4 4 4 4 4 4 4 4 4 4 4 4
-3 -3 -4 -4 -4 -4 -4 -3 -3 -3 -3 -3 -3 -3 -3 -2 -2 -2 -2 -2 -2 -2 -2 -2 -2 -2 -2 -2 -1 -1 -1 -0 -0 -0 -0 0 0 0 0 0 0 0 1 1 1 1 1 2 2 2 2 2 3 3 3 3 3 3 3 3 3 3 3 3 3 3 3 3 3
-3 -4 -4 -4 -4 -4 -4 -4 -4 -3 -3 -3 -3 -3 -3 -3 -2 -2 -2 -2 -2 -2 -2 -2 -2 -2 -2 -2 -2 -1 -1 -1 -1 -0 -0 -0 -0 -0 -0 0 0 -0 -0 -0 -0 -0 -0 0 0 1 1 1 1 1 1 1 1 1 1 1 1 2 2 2 3 3 3 3 3
-3 -4 -4 -4 -4 -4 -4 -4 -4 -4 -3 -3 -3 -3 -3 -3 -2 -2 -2 -2 -2 -2 -2 -2 -2 -2 -2 -2 -2 -2 -2 -1 -1 -1 -0 -0 -0 -0 -0 0 0 0 -0 -0 -1 -1 -1 -1 -1 -1 -0 -0 -0 -0 -0 -0 -0 -0 0 0 0 1 1 1 2 2 2 2 2
-4 -4 -4 -4 -4 -4 -4 -4 -4 -4 -4 -3 -3 -3 -3 -3 -3 -2 -2 -2 -2 -2 -2 -2 -2 -2 -2 -2 -2 -2 -2 -2 -2 -1 -1 -1 -0 0 0 0 0 -0 -0 -0 -0 -1 -1 -1 -1 -1 -1 -1 -1 -1 -1 -1 -1 -1 -1 -1 -0 -0 -0 0 1 1 1 1 2
-4 -4 -5 -5 -4 -4 -4 -4 -4 -4 -4 -3 -4 -3 -3 -3 -3 -2 -2 -2 -2 -2 -2 -2 -2 -2 -2 -2 -2 -2 -2 -2 -2 -2 -2 -1 -1 -0 0 0 0 -0 -0 -0 -0 -0 -1 -1 -1 -1 -1 -1 -1 -1 -1 -1 -1 -1 -1 -1 -1 -1 -1 -1 -0 0 0 1 1
-4 -5 -5 -5 -4 -4 -4 -4 -4 -4 -4 -4 -4 -4 -4 -3 -3 -3 -2 -2 -2 -2 -2 -3 -3 -3 -2 -2 -2 -2 -2 -2 -2 -2 -2 -2 -1 -1 -1 -0 0 0 0 0 -0 -0 -1 -1 -1 -1 -1 -1 -1 -1 -1 -1 -1 -1 -1 -1 -1 -1 -1 -1 -1 -0 -0 0 0
-5 -5 -5 -4 -4 -4 -4 -4 -4 -4 -4 -4 -4 -4 -4 -4 -3 -3 -3 -2 -2 -2 -3 -3 -3 -3 -3 -3 -2 -2 -2 -2 -2 -2 -2 -2 -2 -2 -1 -1 -0 0 0 0 -0 -0 -1 -1 -1 -1 -1 -1 -1 -1 -1 -1 -1 -1 -1 -1 -1 -1 -1 -1 -1 -1 -0 -0 0
-5 -5 -5 -5 -5 -5 -4 -4 -4 -4 -4 -4 -4 -4 -4 -4 -4 -3 -3 -3 -2 -2 -3 -3 -3 -3 -3 -3 -3 -3 -3 -2 -2 -2 -2 -2 -2 -2 -1 -1 -1 -0 0 0 0 -0 -1 -1 -1 -1 -1 -1 -1 -1 -1 -2 -1 -1 -1 -1 -1 -1 -1 -1 -1 -1 -1 -1 -0
-5 -5 -5 -5 -5 -5 -5 -4 -4 -4 -4 -4 -4 -4 -4 -4 -4 -4 -3 -3 -2 -2 -2 -3 -3 -3 -3 -3 -3 -3 -3 -3 -3 -3 -2 -2 -2 -2 -2 -1 -1 -1 -0 0 0 -0 -1 -1 -1 -1 -1 -1 -1 -1 -2 -2 -2 -2 -2 -2 -1 -1 -1 -1 -1 -1 -1 -1 -1
-5 -5 -5 -5 -5 -5 -5 -5 -5 -4 -4 -4 -4 -4 -4 -4 -4 -4 -4 -3 -3 -2 -2 -3 -3 -3 -3 -3 -3 -3 -3 -3 -3 -3 -3 -3 -2 -2 -2 -2 -1 -1 -1 -0 0 -0 -0 -1 -1 -1 -1 -1 -2 -2 -2 -2 -2 -2 -2 -2 -2 -2 -1 -1 -1 -1 -1 -1 -1
-5 -5 -5 -5 -5 -5 -5 -5 -5 -5 -4 -4 -4 -4 -4 -4 -4 -4 -4 -4 -3 -3 -2 -3 -3 -3 -3 -3 -3 -3 -3 -3 -3 -3 -3 -3 -3 -3 -2 -2 -2 -2 -1 -0 -0 -0 -0 -1 -1 -2 -2 -2 -2 -2 -2 -2 -2 -2 -2 -2 -2 -2 -2 -1 -1 -1 -1 -1 -1
-5 -5 -5 -5 -5 -5 -5 -5 -5 -5 -5 -4 -4 -4 -4 -4 -4 -4 -4 -4 -4 -3 -3 -3 -3 -3 -3 -3 -3 -3 -3 -3 -3 -3 -3 -3 -3 -3 -3 -2 -2 -2 -2 -1 -0 -0 -1 -1 -1 -2 -2 -2 -2 -2 -2 -2 -2 -2 -2 -2 -2 -2 -2 -2 -1 -1 -1 -1 -1
-5 -6 -6 -6 -5 -5 -5 -5 -5 -5 -5 -5 -4 -4 -4 -4 -4 -4 -4 -4 -4 -3 -3 -3 -3 -3 -3 -3 -3 -3 -3 -3 -3 -3 -3 -3 -3 -3 -3 -2 -2 -2 -2 -1 -1 -1 -1 -1 -1 -2 -2 -2 -2 -2 -2 -2 -2 -3 -3 -2 -2 -2 -2 -2 -2 -2 -1 -1 -1
-6 -6 -6 -6 -6 -6 -5 -5 -5 -5 -5 -5 -5 -5 -4 -4 -4 -4 -4 -4 -4 -4 -3 -3 -3 -3 -3 -3 -3 -3 -3 -3 -3 -3 -3 -3 -3 -3 -3 -3 -2 -2 -2 -1 -1 -1 -1 -1 -2 -2 -2 -2 -2 -2 -2 -2 -3 -3 -3 -3 -2 -2 -2 -2 -2 -2 -2 -2 -2
-6 -6 -6 -6 -6 -6 -6 -5 -5 -5 -5 -5 -5 -5 -5 -4 -4 -4 -4 -4 -4 -4 -4 -3 -3 -3 -3 -3 -3 -3 -3 -3 -3 -3 -3 -3 -3 -3 -3 -3 -3 -3 -2 -2 -1 -1 -1 -1 -2 -2 -2 -2 -2 -2 -2 -3 -3 -3 -3 -3 -2 -2 -2 -2 -2 -2 -2 -2 -2
-6 -6 -6 -6 -6 -6 -6 -6 -6 -6 -6 -5 -5 -5 -5 -5 -4 -4 -4 -4 -4 -4 -4 -4 -4 -3 -3 -3 -3 -3 -3 -3 -3 -3 -3 -3 -3 -3 -3 -3 -3 -3 -3 -2 -1 -1 -1 -2 -2 -2 -2 -2 -2 -2 -3 -3 -3 -3 -3 -3 -3 -2 -2 -2 -2 -2 -2 -2 -2
-6 -6 -6 -6 -6 -6 -6 -6 -6 -6 -6 -6 -6 -6 -5 -5 -5 -4 -4 -4 -4 -4 -4 -4 -4 -4 -4 -3 -3 -3 -3 -3 -3 -3 -3 -3 -3 -3 -3 -3 -3 -3 -3 -2 -1 -1 -2 -2 -2 -2 -2 -2 -2 -3 -3 -3 -3 -3 -3 -3 -3 -3 -3 -3 -3 -3 -3 -2 -2
-7 -7 -7 -7 -7 -6 -6 -6 -6 -6 -6 -6 -6 -6 -6 -5 -5 -5 -5 -4 -4 -4 -4 -4 -4 -4 -4 -4 -4 -3 -3 -3 -3 -3 -3 -3 -3 -3 -3 -3 -3 -3 -3 -2 -1 -1 -2 -2 -2 -2 -2 -2 -3 -3 -3 -3 -3 -3 -3 -3 -3 -3 -3 -3 -3 -3 -3 -3 -2
-7 -7 -7 -7 -7 -7 -7 -7 -7 -7 -7 -7 -7 -6 -6 -6 -6 -5 -5 -5 -5 -5 -4 -4 -4 -4 -4 -4 -4 -4 -3 -3 -3 -3 -3 -3 -3 -3 -3 -3 -3 -3 -2 -2 -2 -2 -2 -2 -2 -2 -2 -2 -2 -3 -3 -3 -3 -3 -3 -3 -3 -3 -3 -3 -3 -3 -3 -3 -2
-7 -7 -7 -7 -7 -7 -7 -7 -7 -7 -7 -7 -7 -7 -7 -6 -6 -6 -5 -5 -5 -5 -5 -5 -5 -4 -4 -4 -4 -4 -4 -3 -3 -3 -3 -3 -3 -3 -3 -3 -3 -2 -2 -2 -2 -2 -2 -2 -2 -2 -2 -2 -2 -2 -2 -3 -3 -3 -3 -3 -3 -3 -3 -3 -3 -3 -3 -3 -2
-8 -8 -8 -7 -7 -7 -7 -7 -7 -7 -7 -7 -7 -7 -7 -7 -7 -6 -6 -6 -5 -5 -5 -5 -5 -5 -5 -4 -4 -4 -4 -4 -4 -3 -3 -3 -3 -3 -3 -3 -3 -3 -2 -2 -2 -2 -2 -2 -2 -2 -2 -2 -2 -2 -2 -3 -3 -3 -3 -3 -3 -3 -3 -3 -3 -3 -3 -3 -2
-8 -8 -8 -8 -7 -7 -7 -7 -7 -8 -8 -8 -8 -8 -7 -7 -7 -6 -6 -6 -6 -6 -6 -5 -5 -5 -5 -5 -4 -4 -4 -4 -4 -4 -4 -3 -3 -3 -3 -3 -3 -3 -3 -2 -2 -2 -2 -3 -3 -3 -3 -2 -2 -2 -2 -3 -3 -3 -3 -3 -3 -3 -3 -3 -3 -3 -3 -3 -3
Height
803 802 800 799 797 796 794 792 791 790 788 786 784 782 779 777 775 772 770 768 766 764 761 759 757 754 752 750 748 747 744 742 741 739 738 737 736 734 733 732 731 730 729 728 728 727 725 723 724 723 719 714 713 714 715 716 717 719 721 722 724 725 727 728 729 729 730 731 732
803 802 800 799 798 796 794 792 791 789 787 786 784 782 779 777 775 772 770 768 766 764 762 759 756 754 752 749 748 746 744 742 740 738 737 735 734 733 732 731 730 729 728 727 727 727 725 724 724 724 721 715 712 712 712 714 715 717 718 720 722 723 725 726 727 728 729 730 731
803 802 800 799 798 796 795 792 791 789 787 785 783 781 779 777 775 772 770 768 766 764 761 759 756 753 751 749 747 745 743 741 739 737 735 733 732 731 730 729 728 728 727 727 727 726 726 724 723 724 723 717 713 711 711 712 713 715 716 718 720 722 723 725 726 727 728 729 730
804 802 801 799 798 797 795 793 791 789 787 784 782 781 779 777 775 772 770 767 765 763 761 758 755 753 750 748 746 744 742 740 738 736 734 732 730 729 728 727 727 726 725 725 725 725 725 723 722 723 723 720 716 713 712 712 713 713 715 716 718 720 721 723 724 726 727 728 729
804 803 802 800 798 797 795 793 791 789 787 784 782 780 778 776 774 772 769 767 764 762 760 757 755 752 750 747 745 743 741 739 737 735 733 730 729 727 726 725 724 724 723 723 723 723 723 722 722 722 722 721 717 714 714 715 714 714 714 715 717 718 719 721 723 724 726 727 728
804 803 801 800 798 796 795 793 791 789 787 785 782 780 778 776 774 772 769 767 763 761 758 756 753 751 748 746 744 742 739 737 735 733 731 729 727 726 724 723 722 722 721 721 721 722 721 721 721 721 721 720 718 717 717 717 716 716 715 716 716 717 718 720 721 723 725 726 728
805 803 801 800 798 796 794 792 791 788 787 784 782 780 778 776 773 771 768 765 762 759 757 755 752 750 747 745 742 740 738 736 734 732 730 728 726 724 722 721 720 720 719 719 720 720 720 719 719 719 719 719 718 718 718 719 718 717 717 716 717 717 718 719 721 722 723 725 727
805 803 802 800 798 796 794 792 790 788 786 784 782 779 777 775 772 769 767 764 761 758 756 753 751 749 746 744 742 739 737 735 732 730 728 726 724 722 721 720 718 717 717 717 718 718 718 718 718 718 718 718 717 718 720 720 720 719 718 717 717 717 717 718 720 721 722 724 726
805 803 801 799 798 796 794 792 790 788 786 783 781 779 776 774 771 768 765 762 760 757 755 752 750 747 745 743 741 738 736 734 732 729 727 725 723 721 720 718 717 716 715 715 716 716 717 717 717 717 717 717 717 718 720 720 720 720 719 718 717 717 717 718 719 720 722 723 725
805 803 801 799 797 796 793 792 789 787 785 783 780 778 776 773 770 767 764 762 759 757 754 751 749 746 743 741 739 737 735 733 731 728 726 724 722 720 718 717 715 714 713 713 714 714 715 715 716 717 717 717 717 718 719 720 720 719 719 718 717 717 717 717 719 720 722 723 724
805 803 802 800 797 795 793 791 789 787 785 782 780 777 774 772 769 766 764 761 758 755 752 750 747 745 742 740 738 736 734 732 729 727 725 722 720 718 717 716 714 713 712 712 712 712 713 713 713 714 715 716 717 718 719 719 719 719 718 717 717 717 717 717 719 720 722 723 724
806 804 802 800 798 796 793 791 789 787 784 782 779 777 774 771 768 765 763 760 757 754 752 749 747 744 742 739 737 734 732 730 728 726 723 721 719 717 716 714 713 712 712 711 710 710 711 711 712 712 712 714 716 718 719 719 719 718 718 717 717 717 717 718 719 720 721 722 723
806 804 802 800 798 796 793 792 789 787 784 782 779 776 773 770 767 765 762 759 756 753 751 748 746 743 741 738 736 733 731 729 727 725 722 720 717 716 714 713 712 712 712 711 710 709 709 710 711 711 711 712 714 717 718 719 719 718 718 717 717 717 718 718 719 720 721 722 723
807 804 802 800 798 796 794 792 789 787 784 782 779 776 773 770 767 765 762 759 756 753 750 747 745 742 740 737 735 733 730 728 726 723 721 719 717 714 713 712 712 712 712 712 711 710 709 710 710 710 711 711 713 715 717 718 718 718 717 717 717 717 717 718 719 720 721 722 723
807 805 802 800 798 796 794 792 789 787 785 782 779 776 773 770 767 765 762 759 756 753 750 747 744 742 740 737 735 732 730 727 725 722 720 718 716 713 712 711 711 711 712 713 712 711 711 710 710 710 710 710 712 713 716 717 717 717 717 716 716 716 717 717 718 719 721 722 722
807 805 803 801 798 797 794 792 790 787 785 782 779 777 774 771 768 765 762 759 757 754 751 748 745 742 739 737 734 732 729 726 724 722 719 717 715 713 711 710 710 710 710 712 712 711 711 711 710 710 709 709 711 712 714 716 717 717 717 716 716 716 716 717 718 719 720 721 722
807 805 803 801 799 797 794 792 790 788 786 783 780 777 774 771 768 766 763 761 758 755 752 749 746 743 740 737 734 732 729 726 724 722 720 717 715 713 711 710 710 709 709 710 710 711 711 711 711 710 710 710 711 712 713 714 715 716 716 716 716 716 716 717 717 719 720 721 723
807 805 803 801 799 797 795 792 791 788 786 783 780 777 775 772 769 767 764 761 759 756 753 750 747 744 741 738 735 732 730 727 725 723 721 718 715 713 712 711 710 709 709 709 710 710 710 711 711 711 710 710 711 712 712 713 714 715 716 716 716 716 716 717 717 718 720 721 722
808 806 803 802 799 797 795 793 791 788 786 784 781 778 775 772 770 767 765 762 760 757 755 751 748 745 742 739 736 734 731 729 727 724 722 719 717 715 714 712 711 709 709 709 710 710 710 711 711 711 711 711 711 712 712 713 714 715 715 716 716 716 717 717 717 718 719 721 722
808 806 804 802 800 797 795 793 791 789 787 784 781 778 775 772 770 768 766 763 761 758 756 753 750 747 743 740 738 735 733 731 729 727 724 722 719 718 716 715 713 711 711 711 711 711 711 711 711 711 711 712 712 713 713 714 715 715 716 716 716 717 717 717 717 718 719 720 722
808 807 805 802 800 798 796 794 792 789 787 784 782 779 776 773 771 769 767 764 762 759 757 754 751 748 745 742 740 737 735 733 731 728 726 724 722 721 719 717 716 715 714 713 713 712 712 712 712 712 713 713 714 715 715 716 716 717 717 717 717 717 717 717 717 718 719 720 721
809 807 805 803 801 799 797 794 792 790 787 785 782 779 777 774 772 770 767 765 762 760 758 756 753 750 747 745 742 740 737 735 732 730 728 726 725 723 722 721 719 718 717 717 716 715 714 713 713 714 714 715 716 716 717 718 718 718 719 719 719 719 719 718 718 718 719 720 720
810 807 805 803 801 799 797 794 792 790 787 785 782 780 777 775 772 770 768 766 763 761 759 757 755 752 750 747 745 742 739 736 734 732 730 728 727 726 725 724 722 722 721 720 719 718 717 716 716 716 716 717 717 718 719 720 720 721 722 722 722 722 721 720 719 719 719 720 720
810 808 806 803 801 799 797 795 792 790 787 785 783 781 778 775 773 771 769 767 764 762 760 758 756 754 752 749 747 744 741 739 736 734 732 731 729 729 728 727 726 725 724 724 723 722 720 719 719 719 719 720 720 721 722 722 723 723 724 725 725 725 724 722 721 720 720 721 721
811 808 806 804 801 799 797 795 792 790 788 786 784 781 779 776 773 771 769 767 765 763 761 759 757 755 753 751 748 746 744 742 739 737 735 733 732 731 730 729 729 728 727 727 726 725 723 723 722 722 723 723 723 724 724 725 725 726 727 727 728 727 727 725 723 722 722 722 722
811 808 806 804 801 799 797 795 793 791 788 786 784 782 779 777 774 772 770 768 766 764 762 760 758 757 755 752 750 748 746 744 742 741 739 737 735 733 732 732 731 731 730 730 728 727 727 726 726 726 726 726 726 726 727 727 727 728 729 729 730 729 728 727 726 725 724 724 724
811 808 806 804 802 799 797 795 793 791 788 787 784 782 780 778 775 773 770 769 767 765 763 761 760 758 757 754 752 750 748 747 745 743 742 740 739 737 735 734 733 733 732 732 731 730 729 729 728 728 728 728 728 728 729 729 729 730 730 731 731 731 730 729 728 727 726 726 726
811 808 806 804 802 799 797 795 793 791 789 787 785 783 781 778 776 773 771 769 767 766 764 762 761 759 758 756 754 752 751 749 747 746 744 743 742 740 738 737 735 735 734 734 733 732 731 731 730 730 730 730 730 730 731 731 731 732 732 732 732 732 731 730 730 729 728 728 727
811 809 806 804 802 800 798 796 793 792 789 787 786 783 781 779 777 774 772 770 768 767 765 763 762 760 759 757 756 754 753 751 749 748 746 745 743 742 741 740 738 737 736 736 735 734 733 732 732 732 732 732 732 732 732 733 733 733 733 733 733 733 732 732 731 731 730 729 729
811 809 807 805 802 800 798 796 794 792 790 788 786 784 782 780 777 775 773 771 769 767 766 765 763 762 760 759 757 756 754 753 751 749 747 746 745 744 742 742 740 739 738 737 736 736 735 734 734 733 733 733 733 734 734 734 734 734 735 735 734 734 734 733 733 732 732 731 730
812 809 807 805 803 801 799 797 795 793 791 789 787 784 782 781 779 777 774 772 770 768 767 766 764 763 761 760 759 757 756 754 752 751 749 748 747 745 744 743 742 740 739 738 737 737 736 735 735 735 735 734 735 735 735 735 735 736 736 736 736 735 735 735 734 733 733 732 732
812 810 808 806 803 801 799 797 795 793 792 789 787 785 783 782 780 778 776 774 771 769 768 767 765 763 762 761 759 758 757 755 754 752 751 750 748 747 745 744 742 741 740 740 739 738 737 736 736 736 736 736 736 736 736 736 736 737 737 737 737 737 736 736 736 735 734 733 733
812 810 808 806 804 802 800 798 796 794 792 790 788 786 784 782 780 778 777 775 772 770 769 767 766 765 763 762 760 759 758 757 756 754 753 752 750 748 747 745 743 742 741 740 739 738 737 737 737 736 736 737 737 737 737 737 737 737 737 737 737 737 737 737 737 736 735 735 734
813 811 809 807 805 802 800 798 797 795 793 791 789 787 785 783 781 779 777 776 774 772 770 769 767 766 764 763 762 760 759 758 757 756 754 753 752 750 748 747 745 744 742 741 739 738 738 737 737 737 737 737 737 738 738 738 738 738 738 738 738 738 738 738 738 737 737 736 735
814 812 809 807 805 803 801 799 797 795 793 791 789 787 786 784 782 780 779 777 775 773 771 770 768 767 766 764 763 761 760 759 757 757 755 754 753 752 750 748 747 745 743 741 740 738 738 738 738 738 738 738 739 739 739 739 739 739 739 739 739 739 739 739 738 738 737 737 737
815 812 810 808 806 804 802 800 798 796 794 792 790 788 786 785 783 781 780 778 776 774 772 771 769 767 766 765 763 762 761 760 758 757 756 755 754 753 752 750 748 747 744 742 741 740 739 740 740 740 740 740 740 740 740 740 740 741 741 740 740 740 740 739 739 739 738 738 738
815 813 811 809 807 805 803 801 799 797 795 793 791 789 787 785 784 782 781 779 777 775 773 772 770 768 767 766 764 763 762 761 759 758 757 756 755 754 753 751 750 748 746 744 743 742 741 742 742 741 741 741 741 741 741 741 742 742 742 742 741 741 740 740 739 739 739 739 739
816 814 812 810 807 806 803 802 800 797 796 793 792 790 788 786 784 783 781 780 778 776 774 772 771 769 768 767 765 764 762 761 760 759 758 757 756 755 754 752 751 750 748 747 745 744 743 743 743 743 742 742 742 742 742 742 742 742 742 742 742 742 741 741 740 739 739 739 740
817 814 812 810 808 806 804 802 801 799 797 794 792 790 788 787 785 783 782 781 779 777 775 774 772 770 769 767 766 764 763 762 761 759 758 757 757 756 755 753 752 751 750 748 747 746 745 745 744 744 744 743 743 743 743 743 743 743 743 743 743 742 742 741 741 740 740 740 740
817 815 813 811 809 807 805 803 802 800 797 795 793 791 789 787 786 784 783 781 780 778 776 774 773 771 769 768 766 765 763 762 761 760 759 758 757 756 755 754 753 752 751 750 748 747 746 746 746 745 745 744 744 744 744 744 744 744 744 744 743 743 742 742 742 742 741 741 741
817 815 813 811 809 808 806 804 802 800 798 796 794 792 790 788 786 784 783 782 780 778 777 775 773 772 770 768 767 766 764 763 762 761 760 759 758 757 756 755 754 753 752 751 750 748 747 747 747 746 746 745 745 745 745 744 744 744 744 744 744 743 743 743 743 743 742 743 743
Wind_Speed
25 25 24 23 23 23 23 22 22 22 22 23 23 24 24 24 24 24 24 24 24 25 26 26 26 27 29 31 33 34 35 35 34 34 34 34 34 34 33 32 29 26 25 26 29 32 32 30 28 26 25 24 24 22 21 20 19 18 17 15 13 12 11 10 9 9 9 10 10
25 25 24 23 23 23 23 23 22 23 23 24 23 23 23 23 23 24 24 24 25 26 26 27 28 28 30 32 33 33 33 33 34 34 34 34 34 34 34 33 31 27 24 22 23 25 26 24 24 24 22 21 22 23 22 20 20 19 18 16 14 12 10 9 7 7 7 7 7
25 25 24 24 24 24 23 22 23 24 25 25 24 23 23 23 23 23 24 25 26 27 27 28 29 30 31 32 32 32 32 33 34 35 35 34 34 34 34 33 32 31 29 25 22 22 22 22 21 21 19 15 18 21 21 20 20 19 18 16 15 13 10 8 6 5 4 3 4
25 25 24 24 25 25 24 23 24 26 26 25 24 24 23 23 23 24 25 26 27 27 28 29 30 31 31 31 32 32 33 34 34 34 34 34 33 33 34 33 32 31 29 28 25 24 24 24 22 19 17 14 11 14 17 18 18 18 18 17 15 13 11 9 6 4 2 1 2
25 25 24 24 25 25 24 24 25 26 26 25 25 25 25 24 24 25 26 28 28 29 29 30 30 30 30 31 31 32 33 34 33 32 32 33 33 33 33 33 31 29 28 28 27 27 27 27 25 22 18 15 7 6 9 12 15 16 16 15 14 13 12 10 8 5 3 1 1
25 25 25 25 26 25 25 25 26 27 26 26 26 26 27 27 26 27 29 30 30 31 31 30 30 29 30 31 32 32 33 34 32 32 32 32 32 33 33 32 30 28 27 27 26 27 28 29 27 23 18 15 11 4 3 6 9 12 13 13 13 12 12 10 8 6 4 2 0
25 25 26 26 26 26 26 27 27 27 27 26 26 27 28 29 29 30 31 31 31 31 30 29 29 29 30 31 32 33 33 33 32 32 32 32 32 33 32 31 29 27 26 26 25 26 26 28 26 21 15 10 6 2 1 1 3 5 8 9 9 9 9 8 7 5 4 3 2
25 25 26 26 26 26 27 28 28 28 27 27 27 28 29 30 31 31 32 32 31 30 30 29 30 30 31 32 32 32 32 32 32 32 32 32 32 32 32 31 29 27 26 26 25 25 25 25 23 17 12 8 5 4 4 4 2 1 3 5 6 6 5 5 5 4 4 4 5
26 26 26 26 26 27 28 29 28 28 27 27 28 29 30 30 31 31 32 32 31 31 31 30 31 31 31 31 31 30 30 30 30 30 31 31 31 31 31 30 28 27 26 26 26 26 25 23 20 15 10 9 8 8 9 8 6 4 2 2 4 4 4 4 3 3 3 4 5
27 27 27 27 27 28 28 29 28 27 27 28 29 30 30 31 32 32 32 32 32 32 32 32 32 31 31 31 30 29 29 29 29 29 30 30 30 30 29 28 27 26 25 26 28 29 29 26 22 17 13 11 12 13 14 14 12 9 7 4 2 1 2 2 2 2 2 3 4
27 27 27 27 28 28 28 28 28 27 27 28 30 31 31 32 33 33 33 33 34 34 33 32 31 31 30 29 29 28 28 28 29 29 29 30 30 29 27 25 24 23 23 24 27 30 31 30 27 24 20 16 15 15 16 17 16 14 12 10 7 5 3 3 3 3 3 3 3
27 27 27 27 28 28 28 28 27 27 28 29 30 31 32 33 34 34 34 34 35 34 32 31 30 30 29 28 28 28 28 29 29 29 29 28 28 27 25 23 21 19 19 19 23 27 30 29 28 26 24 21 19 18 17 17 16 15 15 14 11 9 7 7 7 7 6 5 5
27 27 27 28 28 28 28 27 27 28 29 30 31 32 33 34 34 34 34 35 35 33 31 30 30 29 28 28 27 28 28 28 28 28 27 26 26 25 23 21 18 15 14 13 15 20 23 24 24 24 23 23 21 19 18 17 17 16 15 14 12 11 10 9 9 9 8 7 6
27 27 27 28 28 28 28 28 27 28 29 31 32 33 34 34 34 34 34 35 34 33 31 30 29 28 27 26 27 27 27 27 27 26 25 24 23 22 21 20 17 13 11 10 9 12 15 17 19 21 21 21 20 18 16 16 16 16 15 14 13 12 11 10 10 9 9 8 7
27 27 27 28 28 28 28 28 27 28 29 31 33 34 34 34 33 33 33 34 33 32 31 30 29 28 26 25 25 25 25 25 24 24 23 22 20 18 17 18 18 15 12 11 9 9 10 12 15 17 18 19 18 17 16 15 15 14 13 13 13 12 11 11 10 9 9 8 8
27 28 28 28 28 28 28 28 28 28 30 32 34 34 34 34 34 33 32 32 32 32 30 29 29 28 27 25 25 24 24 23 22 21 20 18 16 14 12 13 16 18 18 16 13 11 10 10 11 12 14 16 17 17 16 15 13 12 11 12 12 12 12 11 10 10 9 9 8
28 29 29 29 29 29 29 29 29 29 31 33 34 35 35 35 34 32 31 31 31 30 29 30 29 29 29 28 27 26 25 24 23 20 17 16 16 15 12 9 8 11 15 18 16 15 14 13 11 11 12 14 16 16 16 14 13 12 12 12 12 12 12 12 12 11 10 9 8
28 29 30 30 30 30 30 30 30 31 32 34 35 36 36 35 33 32 30 30 29 29 29 30 29 29 30 30 29 28 26 26 24 22 19 19 19 18 17 15 14 9 3 4 6 7 9 10 10 11 11 14 15 16 15 15 15 14 13 13 14 14 14 13 13 12 11 10 9
28 29 30 30 30 30 31 31 31 32 33 34 36 37 37 35 33 31 31 31 29 29 29 30 30 30 31 31 30 28 26 27 25 24 23 23 23 21 20 21 21 20 17 13 9 7 6 4 5 7 9 12 13 14 15 15 16 15 15 15 15 15 15 15 14 14 12 11 9
28 29 30 30 30 30 30 30 31 32 33 34 36 37 37 36 33 31 30 30 29 29 30 31 31 31 32 32 30 29 28 27 26 25 25 26 26 25 25 25 25 24 22 20 18 17 15 14 12 11 10 11 11 12 13 13 14 15 15 15 15 16 16 15 15 14 13 12 11
29 29 30 30 30 30 30 30 30 31 32 33 35 37 37 36 33 30 29 29 28 29 30 30 31 32 33 33 31 30 29 28 28 27 26 27 27 28 28 28 28 27 25 24 23 22 21 20 19 18 16 15 14 14 14 14 14 15 16 16 16 16 16 16 16 15 14 13 12
30 30 29 29 29 29 29 29 30 31 32 33 35 36 37 36 33 30 28 28 28 28 28 29 30 31 32 33 32 32 31 31 31 30 29 27 27 28 29 30 30 29 28 27 26 25 24 23 23 22 21 19 19 18 17 17 17 16 17 17 17 17 17 17 17 17 16 15 14
30 29 29 29 30 29 29 29 30 30 31 33 34 36 36 36 34 30 28 27 27 27 27 28 28 30 31 32 33 33 34 34 34 34 32 29 27 26 27 28 29 29 29 28 27 26 26 26 25 25 24 23 22 21 20 19 18 18 17 17 17 17 17 17 17 17 17 17 16
29 29 29 30 30 30 30 29 30 30 31 32 33 34 35 36 34 31 28 26 26 26 26 26 27 28 30 32 33 34 34 35 36 36 35 33 30 26 25 25 26 27 27 27 26 26 26 27 27 26 26 25 24 23 22 21 20 19 18 17 17 16 16 17 17 17 17 16 16
28 29 30 31 32 32 30 30 30 30 31 31 32 33 35 35 34 32 28 26 25 25 25 25 25 26 28 30 32 33 33 33 34 35 35 34 32 29 26 23 23 24 24 24 24 24 25 25 25 25 25 24 24 23 22 22 21 20 19 17 17 16 16 17 17 17 16 15 14
28 29 31 32 33 32 31 30 30 31 31 31 32 32 33 34 34 32 30 26 25 24 24 24 24 24 26 28 30 31 31 32 32 33 34 34 33 31 28 25 22 22 22 22 22 22 23 23 23 23 23 23 22 22 21 20 20 19 18 17 16 16 16 16 16 16 16 15 14
29 30 32 33 33 32 31 31 31 32 31 31 31 31 32 33 33 33 31 28 25 23 22 22 22 23 24 26 27 28 29 30 30 31 31 31 31 30 29 27 24 22 21 21 20 20 20 20 21 21 21 20 20 20 19 19 18 17 17 16 15 15 15 15 15 15 15 14 14
30 31 32 33 33 32 31 31 31 32 31 31 30 30 31 32 32 33 32 29 26 23 21 20 21 21 23 24 25 26 27 28 28 29 29 28 28 27 26 26 25 23 22 20 19 18 18 18 18 19 19 18 18 17 17 16 16 16 16 15 15 14 13 13 13 13 13 13 13
32 32 33 33 32 32 31 31 31 31 31 31 30 30 30 31 31 32 32 31 28 24 20 19 19 20 21 22 23 24 25 26 27 27 27 26 25 24 23 22 23 23 22 21 18 16 16 15 15 16 16 16 16 15 14 14 14 15 15 15 14 14 13 12 11 11 11 11 11
33 33 33 33 32 32 32 32 31 30 30 30 30 30 30 30 30 31 31 31 30 25 20 17 18 19 20 20 21 22 23 24 25 26 26 25 23 21 20 20 20 21 22 21 18 15 14 13 13 13 14 14 14 13 13 13 13 13 13 13 13 13 12 11 11 10 10 10 10
33 34 33 33 32 31 31 32 31 30 29 30 30 30 29 29 29 29 30 30 30 27 22 17 17 18 18 18 19 20 21 22 24 25 25 24 22 21 19 19 19 20 21 21 18 15 12 12 12 12 12 12 12 13 13 13 13 13 12 12 12 12 11 11 10 10 10 10 10
34 34 33 33 32 32 32 32 31 30 29 30 30 29 28 28 28 28 28 29 30 29 25 19 17 17 18 18 18 18 19 20 22 23 23 23 22 21 20 19 19 20 21 20 19 15 11 10 11 11 11 11 12 13 13 13 13 13 13 12 12 11 11 11 10 10 11 11 12
34 34 33 33 32 32 32 32 30 29 29 29 29 28 28 28 28 28 28 28 29 29 27 21 19 18 18 18 18 18 18 18 19 20 21 22 22 21 20 19 20 20 21 20 19 14 9 9 11 11 11 11 12 13 13 14 14 14 14 13 13 12 12 11 11 11 12 13 14
34 34 33 33 32 32 32 31 30 29 29 29 29 29 28 28 28 28 27 27 28 29 27 24 21 19 19 18 18 18 17 17 18 18 19 20 21 21 21 20 20 21 22 22 19 12 7 10 10 10 10 11 11 12 12 13 14 14 14 14 13 12 12 12 12 12 12 13 14
33 33 33 32 32 31 31 30 30 29 29 29 29 29 29 28 27 27 26 25 26 27 27 25 24 22 20 19 19 19 18 18 18 17 17 17 19 20 21 21 20 21 23 24 18 10 10 12 11 10 10 10 10 10 11 12 13 13 13 12 12 12 12 13 13 12 12 13 13
33 32 32 32 31 31 30 30 30 30 29 29 29 29 29 29 27 26 25 24 26 27 27 25 24 24 23 21 20 20 19 19 18 16 16 15 17 18 20 21 21 22 24 24 16 12 15 14 13 11 10 10 10 10 10 11 12 12 11 11 11 12 13 14 14 14 14 13 13
32 32 31 31 31 30 29 29 29 30 30 29 29 29 29 28 27 26 25 24 25 26 26 25 24 24 23 22 21 21 20 19 17 16 15 14 15 16 18 20 22 23 24 23 15 14 15 14 12 11 10 10 10 10 10 11 11 11 10 9 9 11 13 15 16 16 15 15 14
31 31 31 31 30 29 29 29 29 29 29 29 29 29 29 28 27 26 25 24 24 25 25 25 24 24 23 22 21 21 21 19 17 15 14 14 14 15 17 19 21 22 23 21 15 12 13 12 10 9 9 9 9 9 9 10 10 10 9 8 8 9 12 15 16 17 17 16 15
31 30 31 30 29 28 28 28 29 29 29 29 29 29 28 28 27 26 25 24 24 24 24 24 25 24 23 20 20 21 21 19 17 15 14 14 14 14 16 18 20 21 22 21 16 11 10 10 9 8 7 7 8 8 8 8 9 9 8 8 8 8 10 12 15 16 16 16 16
30 30 30 29 28 27 26 27 28 29 29 29 28 28 27 27 27 26 25 25 25 25 24 24 25 25 23 20 20 21 21 20 17 15 14 14 14 14 16 18 19 21 21 20 18 13 9 9 8 7 5 5 6 6 7 8 8 8 8 8 8 8 9 10 11 12 13 14 14
29 29 29 29 27 25 25 26 28 29 29 28 28 27 26 26 27 27 26 25 25 25 24 24 25 25 23 21 20 21 21 20 18 16 15 15 15 15 16 18 19 20 20 20 18 14 10 9 8 6 5 4 5 6 6 7 8 8 8 7 7 7 8 8 9 9 10 11 12
Wind_Direction
349 349 347 345 343 340 337 334 332 331 330 328 325 323 322 320 318 317 317 316 315 314 313 312 311 310 310 309 309 309 308 307 307 306 306 306 306 306 306 303 296 289 283 282 283 284 283 278 261 241 222 206 196 189 185 182 181 179 177 176 176 177 179 180 181 182 184 187 190
349 348 347 345 343 341 338 335 333 332 330 328 325 323 321 320 319 318 317 316 315 314 313 311 309 309 309 309 308 308 307 306 306 305 305 304 303 304 303 301 298 292 285 277 274 277 280 278 262 244 225 202 187 180 177 176 175 173 171 169 168 168 168 168 170 173 178 182 187
348 347 346 345 343 341 339 336 334 332 330 328 326 324 323 321 319 318 317 316 315 314 312 311 309 309 308 308 307 307 307 307 307 306 304 302 301 301 301 300 297 293 289 283 276 275 278 280 272 256 236 208 178 169 169 170 172 171 168 166 166 166 165 163 164 171 184 197 204
347 347 345 343 342 341 339 336 334 332 331 329 327 325 324 322 320 318 317 316 315 314 313 311 310 309 308 307 308 308 309 308 307 305 303 301 299 299 300 299 296 293 288 283 276 273 275 279 280 269 252 231 181 156 156 162 167 168 166 165 165 165 163 159 157 159 170 214 250
346 345 344 342 341 340 339 337 335 333 331 329 327 326 325 323 321 319 318 317 316 314 312 311 309 308 307 308 309 309 309 309 308 306 303 301 298 298 298 299 296 292 287 281 274 271 272 275 278 275 263 246 217 157 145 150 155 156 155 156 157 158 156 152 150 148 143 133 292
344 343 343 342 341 341 339 338 335 334 332 330 328 326 325 324 321 320 318 316 314 312 311 311 309 308 308 308 308 308 309 309 308 306 304 301 299 297 297 298 296 292 286 279 272 268 268 271 274 273 263 250 242 226 135 134 141 143 144 144 145 147 149 148 148 147 146 144 171
342 342 342 342 341 341 339 337 336 334 333 331 328 326 325 323 321 319 317 316 314 313 312 312 310 309 308 308 308 308 308 308 307 307 305 303 300 297 296 296 296 293 286 277 268 263 263 267 270 268 257 242 232 232 248 188 137 138 139 139 140 143 148 153 156 163 173 193 228
343 343 343 342 341 340 339 337 335 334 333 332 329 326 325 323 321 319 318 317 315 314 313 312 310 308 308 307 307 307 307 307 308 307 306 304 301 298 296 296 296 294 287 276 263 256 255 261 264 260 246 227 217 231 257 270 270 176 142 137 139 142 149 161 171 189 214 236 252
344 344 343 342 341 340 339 337 336 334 332 330 328 326 325 324 322 321 319 318 317 316 314 311 309 309 308 307 307 307 307 307 308 309 308 306 303 298 295 295 296 295 289 277 261 248 244 248 253 250 238 229 234 246 259 268 270 260 207 139 126 128 140 156 177 205 234 249 261
344 344 344 343 342 340 339 338 336 334 332 330 328 327 326 326 324 323 321 319 318 316 314 312 311 310 309 308 307 307 307 307 308 309 309 308 304 299 294 293 296 297 291 276 258 244 235 233 234 232 229 229 241 253 262 266 267 263 255 245 223 155 139 148 164 190 226 249 258
345 345 344 343 342 341 340 339 337 335 333 331 330 329 328 327 326 325 324 323 320 317 315 314 313 311 310 309 308 307 307 307 307 308 309 309 306 301 294 290 294 297 290 273 252 238 229 226 223 220 218 219 232 247 259 264 262 257 251 248 248 248 240 224 212 212 223 239 252
345 345 344 344 342 342 341 340 339 337 335 333 332 331 330 329 329 329 328 326 323 320 318 317 315 313 311 310 309 308 307 307 307 308 309 310 308 302 293 287 291 295 289 267 242 229 223 222 219 214 210 211 221 237 251 257 252 245 240 240 240 239 238 237 232 229 228 234 245
345 345 344 344 343 343 343 341 340 339 337 336 334 334 333 332 333 333 332 329 327 325 323 322 320 318 315 313 311 309 308 308 308 309 310 312 311 305 293 283 285 290 288 266 235 220 217 216 214 212 210 210 215 227 240 244 236 229 225 224 222 219 219 222 225 226 227 231 238
345 345 344 344 344 345 344 343 341 340 338 337 337 336 335 335 336 337 336 334 331 330 330 329 328 326 322 319 316 314 312 311 311 310 311 314 315 309 296 281 274 275 278 267 239 218 213 212 210 209 209 209 211 218 225 227 221 215 210 206 201 200 202 207 212 217 221 224 231
346 345 345 345 345 345 345 344 343 341 339 338 338 338 338 339 340 341 340 339 337 338 339 339 338 336 333 330 326 323 321 319 317 315 314 318 322 317 301 280 265 256 254 255 247 232 218 212 208 205 204 202 201 203 206 209 208 205 200 194 190 188 189 194 200 206 210 214 219
346 346 345 346 346 346 346 345 344 342 340 340 339 340 341 342 343 344 344 343 344 346 347 347 347 346 345 343 340 338 337 335 331 326 325 331 340 341 324 292 267 252 244 243 246 246 238 226 213 203 196 191 189 190 194 198 200 199 194 189 186 184 184 186 190 194 198 201 206
347 346 346 347 347 347 347 346 345 343 342 341 342 343 344 344 345 346 347 348 349 350 351 353 353 354 354 354 355 355 355 354 350 348 351 2 14 19 13 352 312 269 250 244 246 248 246 238 226 211 198 189 185 186 190 193 195 195 191 186 183 181 180 181 182 183 184 186 190
347 347 347 348 348 348 348 347 346 344 344 343 344 345 346 346 347 349 352 353 353 353 354 356 358 358 359 1 3 4 5 6 7 9 17 26 33 35 35 34 34 30 0 246 237 236 233 225 219 210 198 188 186 187 190 192 192 193 189 183 179 177 176 175 174 173 173 173 174
346 347 347 348 348 348 348 347 346 345 345 345 346 347 348 349 349 352 356 358 357 356 358 1 2 3 5 6 7 8 10 13 15 18 25 33 38 40 41 43 48 52 56 60 63 69 85 122 157 167 168 170 173 177 180 183 183 183 180 174 169 167 166 164 163 162 160 158 157
345 346 347 347 348 348 348 347 347 346 346 347 347 349 350 351 351 354 357 360 360 1 3 6 7 8 10 11 12 13 15 17 18 21 27 35 40 42 43 44 47 51 55 57 58 60 64 70 79 91 105 118 130 138 144 149 150 150 150 148 145 145 147 148 149 148 146 143 142
345 346 346 346 347 347 347 346 347 347 347 348 349 350 351 352 352 353 357 1 2 3 5 8 10 12 13 15 15 16 17 20 21 23 27 33 39 42 43 44 45 47 50 53 56 59 61 63 66 69 74 81 86 90 95 102 106 111 114 117 119 122 127 131 133 134 133 131 129
345 346 346 346 346 346 346 346 346 347 348 349 350 351 352 352 351 352 357 2 4 5 6 9 11 14 16 17 18 19 21 23 25 26 28 31 36 40 43 44 45 45 46 48 51 55 58 61 62 63 65 67 68 71 73 76 79 83 87 92 98 103 109 114 118 119 119 118 116
347 346 346 346 347 346 346 346 346 347 348 349 350 351 352 353 352 352 356 2 5 6 6 8 11 14 17 19 20 22 24 25 27 28 29 30 33 37 41 44 45 46 46 47 49 53 56 59 60 61 62 62 63 64 65 66 66 67 70 73 78 84 90 96 102 105 106 106 105
347 347 347 347 347 347 347 347 347 348 348 349 349 350 352 353 352 352 354 0 5 7 8 8 10 13 16 19 21 22 23 24 25 26 28 28 29 32 36 42 44 46 46 47 49 52 55 58 59 61 62 62 62 63 63 63 62 61 60 61 63 66 72 78 84 89 92 94 95
346 346 347 348 349 349 349 349 348 348 348 348 349 350 352 352 352 352 352 357 3 7 9 10 10 13 15 18 19 20 21 22 23 23 24 25 26 27 29 34 40 44 45 46 47 50 53 56 59 60 61 62 62 62 63 62 61 59 57 55 54 55 59 65 71 76 80 83 85
346 346 348 349 350 351 350 350 349 349 349 348 349 350 351 352 353 352 352 354 360 5 9 11 12 13 15 18 20 20 20 21 21 21 22 22 23 23 24 26 31 37 42 43 44 48 51 53 55 57 59 60 61 61 61 60 60 58 56 54 52 51 52 55 60 66 70 74 77
346 347 348 350 351 351 350 350 351 351 350 349 349 349 350 352 353 353 353 352 356 2 8 13 14 14 16 19 21 22 22 21 21 21 21 21 21 22 21 21 22 27 34 40 43 46 49 50 51 53 55 56 58 59 59 59 58 57 56 53 51 49 50 51 53 57 61 66 72
348 348 349 350 351 351 351 352 352 352 351 350 349 349 350 352 353 354 354 353 353 358 5 12 16 18 19 21 21 22 23 23 22 22 21 21 22 22 22 20 18 19 24 32 39 44 46 49 50 50 51 53 54 55 56 56 55 53 51 49 47 47 47 49 51 53 56 59 65
350 350 351 351 350 350 351 352 352 352 351 351 350 350 351 352 354 355 355 354 352 354 1 12 18 21 21 21 21 22 23 23 23 23 23 23 24 24 24 22 19 15 16 22 31 39 45 49 52 52 52 53 55 56 55 53 51 49 46 44 42 41 42 44 47 51 54 58 61
352 352 352 351 350 351 351 352 352 352 351 352 352 352 352 353 354 355 355 354 352 352 358 13 21 23 22 22 22 22 22 22 22 23 24 24 24 24 24 23 20 15 12 12 19 31 42 49 54 56 56 56 59 60 60 57 54 49 45 42 39 38 39 41 45 50 56 59 62
354 354 353 352 351 351 351 352 352 352 352 352 353 353 353 353 354 354 354 354 353 353 358 12 21 24 24 23 22 21 21 21 21 22 23 23 22 21 21 20 19 15 9 5 7 17 35 50 58 62 61 59 62 63 63 61 58 55 51 47 44 42 42 45 49 56 62 65 65
354 354 353 352 351 351 351 352 352 352 352 353 354 354 354 353 354 354 355 356 355 355 357 6 17 21 21 21 21 20 18 18 19 20 21 22 21 19 18 16 15 11 5 360 358 5 26 54 64 68 67 64 65 66 65 63 61 59 57 56 54 53 52 54 59 64 68 69 68
354 354 353 352 351 351 352 352 352 352 352 353 354 354 354 354 354 355 356 357 357 356 356 359 8 14 15 15 16 16 15 15 15 16 18 20 20 19 17 13 10 6 1 355 352 357 23 63 71 73 72 70 70 69 67 65 63 62 62 63 63 63 63 63 64 66 68 69 68
352 353 353 352 352 352 352 352 352 352 352 353 353 354 354 354 354 355 355 355 357 357 358 358 1 5 8 10 11 11 10 10 10 12 14 16 18 19 17 12 7 2 357 352 349 359 46 75 75 74 75 75 75 73 69 66 64 64 67 69 71 71 70 69 66 64 63 63 63
351 351 351 351 352 352 352 352 352 352 353 353 353 353 353 353 353 353 354 354 356 358 359 359 358 359 1 5 7 8 7 6 6 7 9 11 13 16 16 13 7 2 357 352 355 26 80 82 77 75 77 79 78 76 71 68 67 69 72 75 77 78 77 73 68 62 58 56 56
350 350 350 350 351 352 352 353 353 353 353 352 352 352 351 352 352 353 354 354 356 358 359 359 358 357 357 359 3 5 5 4 3 4 5 8 9 11 13 13 9 4 360 357 11 58 85 80 77 77 81 83 84 81 77 74 75 77 80 81 82 81 79 76 72 66 59 54 51
349 349 349 350 350 351 353 354 354 353 352 352 351 350 350 350 351 352 353 355 357 357 357 357 358 357 356 356 359 3 5 6 5 5 7 8 9 9 10 13 12 9 5 5 26 64 80 75 76 79 84 88 90 89 86 84 85 87 87 86 81 76 73 72 70 65 61 56 52
348 349 349 349 350 351 353 354 354 353 352 351 350 350 349 350 350 351 352 354 356 356 356 356 357 357 357 356 357 2 7 11 11 12 13 13 13 11 10 12 14 13 10 10 25 55 72 69 71 75 80 86 92 94 94 95 97 95 92 86 76 65 60 61 60 59 56 54 50
348 348 349 349 350 351 353 354 354 353 351 350 349 349 349 349 349 350 352 353 355 356 355 354 355 357 358 357 358 2 8 14 19 21 21 19 16 14 13 14 16 16 13 10 16 38 62 61 61 62 69 79 89 96 102 106 107 102 94 86 75 62 53 51 52 52 53 52 47
348 348 349 349 350 351 353 354 354 353 351 350 349 348 348 348 349 351 353 354 355 355 354 353 354 357 358 358 358 1 6 14 22 26 25 22 20 18 17 18 19 17 14 10 12 26 52 60 54 50 57 75 88 98 109 117 115 106 96 85 75 63 55 48 46 46 47 47 46
348 349 349 349 350 351 352 353 353 352 352 351 349 348 347 348 351 353 354 354 354 354 354 353 354 357 359 360 360 1 5 12 21 26 26 23 21 20 19 19 18 17 14 12 11 19 41 60 57 51 56 81 95 103 112 121 120 112 101 91 78 64 54 46 41 38 36 38 39